Powrót do katalogu

STARLINK-30958

AktywnyŁącznośćVLEO
NORAD 58457·PAYLOAD·🇺🇸 United States

Wystrzelony Nov 28, 2023 z Cape Canaveral Space Force Station

Loading…

Następne Przeloty (najbliższe 24 godziny)

TLE

ŚwieżeSource: CelesTrak SupGP

Epoka: Sep 14, 2026, 21:59 UTC

1 58457C 23183W   26257.91645833  .00060054  00000+0  21752-2 0  2577
2 58457  43.0044  52.6322 0001592 273.9130 243.7594 15.27548034    12

Śledź STARLINK-30958 w czasie rzeczywistym z AllMySat

Download on the App Store